Location: Limoges
(45.8500°N, 1.2500°E)
Time: 01:34:48
(UTC+02:00)

ISS - Pass Details

Date: 24 September 2021
Orbit: 417 x 423 km, 51.6° (Epoch: 21 October)

Event Time Altitude Azimuth Distance (km) Brightness Sun altitude
Rises 22:29:31 0° 294° (WNW) 2,367 1.3 -27.6°
Reaches altitude 10° 22:31:44 10° 304° (NW) 1,503 0.0 -28.0°
Enters shadow 22:33:01 19° 317° (NW) 1,061 -1.0 -28.2°
